| time (UTC) | temp C | wind direction | speed KPH | gust KPH | rain 1hr cm | rain 24hr cm | rain mn cm | humidity % | barometer mb |
| 20260506183018 | 10 | 344 | 8.0 | 17.7 | 0.05 | 0.89 | 0.36 | 35 | 1002.5 |
| 20260506181508 | 13 | 290 | 9.7 | 14.5 | 0.00 | 0.84 | 0.30 | 27 | 1002.1 |
| 20260506180007 | 14 | 192 | 1.6 | 11.3 | 0.05 | 0.84 | 0.30 | 14 | 1001.9 |
| 20260506174505 | 14 | 228 | 1.6 | 12.9 | 0.05 | 0.84 | 0.30 | 14 | 1001.9 |
| 20260506173002 | 14 | 161 | 6.4 | 14.5 | 0.10 | 0.84 | 0.30 | 14 | 1002.1 |
| 20260506171559 | 14 | 188 | 4.8 | 12.9 | 0.13 | 0.84 | 0.30 | 14 | 1002.1 |
| 20260506170054 | 13 | 169 | 4.8 | 11.3 | 0.15 | 0.79 | 0.25 | 14 | 1002.1 |
| 20260506164551 | 13 | 180 | 8.0 | 14.5 | 0.20 | 0.79 | 0.25 | 15 | 1002.3 |
| 20260506163053 | 13 | 221 | 3.2 | 12.9 | 0.20 | 0.71 | 0.20 | 13 | 1002.3 |
| 20260506161546 | 13 | 218 | 4.8 | 14.5 | 0.18 | 0.71 | 0.18 | 12 | 1002.5 |
| 20260506160042 | 13 | 210 | 1.6 | 6.4 | 0.10 | 0.64 | 0.10 | 11 | 1002.7 |
| 20260506154540 | 13 | 171 | 6.4 | 9.7 | 0.05 | 0.58 | 0.05 | 11 | 1002.6 |
| 20260506153042 | 13 | 191 | 4.8 | 9.7 | 0.05 | 0.53 | 0.53 | 12 | 1002.6 |
| 20260506151534 | 13 | 201 | 4.8 | 12.9 | 0.10 | 0.53 | 0.53 | 12 | 1002.3 |
| 20260506150040 | 12 | 180 | 1.6 | 11.3 | 0.15 | 0.53 | 0.53 | 13 | 1002.5 |
| 20260506144550 | 12 | 174 | 1.6 | 6.4 | 0.20 | 0.53 | 0.53 | 13 | 1002.5 |
| 20260506143034 | 12 | 167 | 4.8 | 9.7 | 0.23 | 0.48 | 0.48 | 14 | 1002.8 |
| 20260506141529 | 12 | 181 | 3.2 | 11.3 | 0.20 | 0.43 | 0.43 | 14 | 1003.0 |
| 20260506140040 | 12 | 183 | 6.4 | 12.9 | 0.15 | 0.38 | 0.38 | 13 | 1003.4 |
| 20260506134532 | 12 | 172 | 9.7 | 16.1 | 0.08 | 0.30 | 0.30 | 12 | 1003.7 |
| 20260506133025 | 11 | 135 | 4.8 | 9.7 | 0.05 | 0.25 | 0.25 | 13 | 1003.6 |
| 20260506131532 | 11 | 144 | 0.0 | 0.0 | 0.03 | 0.23 | 0.23 | 16 | 1003.3 |
| 20260506130022 | 10 | 140 | 0.0 | 0.0 | 0.03 | 0.23 | 0.23 | 17 | 1003.3 |
| 20260506124520 | 10 | 144 | 0.0 | 0.0 | 0.05 | 0.23 | 0.23 | 17 | 1003.2 |
| 20260506123028 | 10 | 132 | 0.0 | 0.0 | 0.03 | 0.20 | 0.20 | 20 | 1003.4 |
| 20260506121516 | 10 | 132 | 0.0 | 0.0 | 0.08 | 0.20 | 0.20 | 20 | 1003.6 |
| 20260506120024 | 9 | 25 | 0.0 | 0.0 | 0.10 | 0.20 | 0.20 | 23 | 1003.4 |
| 20260506114519 | 9 | 78 | 0.0 | 0.0 | 0.08 | 0.18 | 0.18 | 23 | 1003.9 |
| 20260506113014 | 9 | 5 | 0.0 | 0.0 | 0.10 | 0.18 | 0.18 | 25 | 1004.2 |
| 20260506111511 | 9 | 5 | 0.0 | 0.0 | 0.05 | 0.13 | 0.13 | 26 | 1004.1 |
| 20260506110010 | 9 | 341 | 0.0 | 4.8 | 0.05 | 0.10 | 0.10 | 28 | 1004.1 |
| 20260506104508 | 9 | 14 | 0.0 | 6.4 | 0.05 | 0.10 | 0.10 | 29 | 1003.9 |
| 20260506103008 | 9 | 318 | 0.0 | 6.4 | 0.05 | 0.08 | 0.08 | 30 | 1003.7 |
| 20260506101505 | 9 | 349 | 1.6 | 6.4 | 0.05 | 0.08 | 0.08 | 33 | 1003.7 |
| 20260506100015 | 9 | 286 | 0.0 | 0.0 | 0.03 | 0.05 | 0.05 | 35 | 1003.8 |
| 20260506094502 | 9 | 19 | 0.0 | 0.0 | 0.03 | 0.05 | 0.05 | 37 | 1003.8 |
| 20260506093001 | 9 | 66 | 0.0 | 3.2 | 0.00 | 0.20 | 0.03 | 38 | 1003.7 |
| 20260506091557 | 9 | 52 | 0.0 | 3.2 | 0.00 | 0.20 | 0.03 | 39 | 1003.5 |
| 20260506090057 | 9 | 14 | 0.0 | 4.8 | 0.00 | 0.20 | 0.03 | 41 | 1003.5 |
| 20260506084559 | 9 | 333 | 1.6 | 6.4 | 0.00 | 0.20 | 0.03 | 42 | 1003.5 |
| 20260506083058 | 9 | 346 | 1.6 | 6.4 | 0.00 | 0.20 | 0.03 | 44 | 1003.6 |
| 20260506081607 | 9 | 34 | 4.8 | 12.9 | 0.00 | 0.20 | 0.03 | 45 | 1004.0 |
| 20260506073043 | 10 | 13 | 4.8 | 9.7 | 0.00 | 0.20 | 0.03 | 54 | 1004.3 |
| 20260506071543 | 10 | 346 | 3.2 | 9.7 | 0.00 | 0.20 | 0.03 | 56 | 1004.4 |
| 20260506061543 | 10 | 346 | 0.0 | 0.0 | 0.00 | 0.20 | 0.03 | 60 | 1004.8 |
| 20260506044531 | 11 | 341 | 0.0 | 0.0 | 0.00 | 0.20 | 0.03 | 69 | 1005.7 |
| 20260506043022 | 12 | 341 | 0.0 | 0.0 | 0.00 | 0.20 | 0.03 | 70 | 1005.8 |
| 20260506041521 | 12 | 350 | 0.0 | 0.0 | 0.00 | 0.20 | 0.03 | 70 | 1005.9 |
| 20260506040018 | 12 | 30 | 0.0 | 1.6 | 0.00 | 0.20 | 0.03 | 71 | 1005.8 |
| 20260506034516 | 12 | 28 | 0.0 | 4.8 | 0.00 | 0.20 | 0.03 | 71 | 1006.2 |
| 20260506033023 | 12 | 49 | 0.0 | 0.0 | 0.00 | 0.20 | 0.03 | 70 | 1006.1 |
| 20260506031527 | 12 | 74 | 0.0 | 1.6 | 0.00 | 0.20 | 0.03 | 70 | 1006.1 |
| 20260506030045 | 12 | 11 | 0.0 | 1.6 | 0.00 | 0.20 | 0.03 | 69 | 1006.1 |
| 20260506024550 | 12 | 336 | 3.2 | 8.0 | 0.00 | 0.20 | 0.03 | 69 | 1006.1 |
| 20260506023040 | 12 | 330 | 4.8 | 16.1 | 0.00 | 0.20 | 0.03 | 68 | 1005.9 |
| 20260506021539 | 12 | 22 | 6.4 | 12.9 | 0.00 | 0.20 | 0.03 | 69 | 1005.9 |
| 20260506020037 | 13 | 38 | 1.6 | 14.5 | 0.00 | 0.20 | 0.03 | 68 | 1006.0 |
| 20260506014534 | 13 | 50 | 6.4 | 20.9 | 0.00 | 0.20 | 0.03 | 69 | 1005.7 |
| 20260506013026 | 14 | 17 | 11.3 | 24.1 | 0.00 | 0.20 | 0.03 | 67 | 1005.3 |
| 20260506011523 | 15 | 343 | 0.0 | 0.0 | 0.00 | 0.20 | 0.03 | 57 | 1004.7 |
| 20260506010044 | 15 | 186 | 1.6 | 4.8 | 0.00 | 0.20 | 0.03 | 62 | 1004.3 |
| 20260506004516 | 16 | 162 | 1.6 | 4.8 | 0.00 | 0.20 | 0.03 | 67 | 1004.0 |
| 20260506003011 | 16 | 200 | 0.0 | 9.7 | 0.00 | 0.20 | 0.03 | 68 | 1003.7 |
| 20260506001509 | 16 | 200 | 3.2 | 6.4 | 0.00 | 0.20 | 0.03 | 69 | 1003.4 |
| 20260506000013 | 16 | 176 | 1.6 | 6.4 | 0.00 | 0.20 | 0.03 | 70 | 1003.4 |
| 20260505234508 | 16 | 184 | 4.8 | 8.0 | 0.00 | 0.20 | 0.03 | 70 | 1003.5 |
| 20260505233008 | 17 | 152 | 3.2 | 11.3 | 0.00 | 0.20 | 0.03 | 70 | 1003.2 |
| 20260505231509 | 17 | 176 | 3.2 | 8.0 | 0.00 | 0.20 | 0.03 | 70 | 1002.9 |
| 20260505230004 | 17 | 195 | 3.2 | 9.7 | 0.00 | 0.20 | 0.03 | 70 | 1002.9 |
| 20260505224503 | 17 | 185 | 3.2 | 11.3 | 0.00 | 0.20 | 0.03 | 70 | 1002.7 |
| 20260505223001 | 17 | 190 | 4.8 | 9.7 | 0.00 | 0.20 | 0.03 | 69 | 1002.7 |
| 20260505221601 | 17 | 180 | 4.8 | 11.3 | 0.00 | 0.20 | 0.03 | 69 | 1002.6 |
| 20260505221502 | 17 | 181 | 4.8 | 11.3 | 0.00 | 0.20 | 0.03 | 69 | 1002.6 |
| 20260505220100 | 16 | 198 | 4.8 | 16.1 | 0.00 | 0.20 | 0.03 | 70 | 1002.9 |
| 20260505214632 | 16 | 132 | 9.7 | 20.9 | 0.00 | 0.20 | 0.03 | 70 | 1003.0 |
| 20260505213059 | 16 | 184 | 4.8 | 9.7 | 0.00 | 0.20 | 0.03 | 68 | 1003.0 |
| 20260505211555 | 16 | 180 | 6.4 | 12.9 | 0.03 | 0.20 | 0.03 | 69 | 1002.9 |
| 20260505210053 | 16 | 137 | 9.7 | 17.7 | 0.03 | 0.20 | 0.03 | 69 | 1003.4 |
| 20260505204550 | 16 | 244 | 12.9 | 33.8 | 0.03 | 0.20 | 0.03 | 69 | 1002.9 |
| 20260505203044 | 18 | 24 | 11.3 | 25.7 | 0.03 | 0.20 | 0.03 | 68 | 1002.4 |
| 20260505201549 | 21 | 319 | 17.7 | 40.2 | 0.00 | 0.18 | 0.00 | 54 | 1001.5 |
| 20260505200038 | 23 | 176 | 4.8 | 22.5 | 0.00 | 0.18 | 0.00 | 43 | 1001.0 |
| 20260505194538 | 23 | 165 | 11.3 | 27.4 | 0.00 | 0.18 | 0.00 | 42 | 1000.5 |
| 20260505193034 | 23 | 178 | 17.7 | 40.2 | 0.00 | 0.18 | 0.00 | 42 | 1000.4 |
| 20260505191532 | 23 | 189 | 20.9 | 33.8 | 0.00 | 0.18 | 0.00 | 41 | 1000.7 |
| 20260505190035 | 22 | 146 | 8.0 | 29.0 | 0.00 | 0.18 | 0.00 | 49 | 1000.8 |
| 20260505184526 | 23 | 211 | 11.3 | 22.5 | 0.00 | 0.18 | 0.00 | 43 | 1001.3 |